Погода в Романцевском

Россия / Тульская область     53°50′02″N   38°19′25″E
темп.,
°C
ветер,
м/с
пор.,
м/с
влажн.,
%
обл.,
%
осадки,
мм/ч
давл.,
гПа
погр.,
м
24 июля, сб
сб2400:00+14сз37766 0.0 1010130
03:00+13сз347685 0.0 101174
06:00+14сз25784 0.0 1011140
09:00+19ссз45567 0.0 1012879
12:00+20с654853 0.0 10131497
15:00+21ссз45469 0.0 10141589
18:00+18с4647100 0.0 1015311
21:00+15с225597 0.0 101731
25 июля, вс
вс2500:00+16св235667 0.0 101861
03:00+14в2263100 0.0 101922
06:00+15ссв2262100 0.0 102098
09:00+18ссв115164 0.0 1021519
12:00+22в023897 0.0 10212346
15:00+21в0137100 0.0 10211415
18:00+21св1144100 0.0 1022297
21:00+16всв22563 0.0 102328
26 июля, пн
пн2600:00+14св11630 0.0 102411
03:00+13св11651 0.0 102410
06:00+15ююв11655 0.0 102511
09:00+21ююв22425 0.0 1025498
12:00+25ссв023051 0.0 10252566
15:00+25ссв332949 0.0 10242608
18:00+24св443777 0.0 1023989
21:00+18всв22483 0.0 102411
27 июля, вт
вт2700:00+17ююв115295 0.0 102411
03:00+18юз115098 0.0 102411
06:00+18з125493 0.0 102519
09:00+20зсз2250100 0.0 1024104
12:00+25зюз12369 0.0 10241118
15:00+27з233178 0.0 10222788
18:00+26сз223326 0.0 10212169
21:00+20ююв225315 0.0 102211
28 июля, ср
ср2800:00+19юз115538 0.0 102211
03:00+17ююз11589 0.0 102111
06:00+18юз22585 0.0 102121
09:00+25юз23425 0.0 1019577
12:00+28зюз443319 0.0 10182549
15:00+29юз452847 0.0 10162887
18:00+28зюз5634100 0.0 10152087
21:00+22ююз3447100 0.0 101459